Location: Dampvalley
(47.9094°N, 6.1967°E)
Time: 15:06:34
(UTC+00:00)

Lacrosse 4 Rocket - Pass Details

Date: 05 March 2021
Orbit: 537 x 620 km, 68.0° (Epoch: 18 April)

Event Time Altitude Azimuth Distance (km) Brightness Sun altitude
Exits shadow 05:16:09 - 308° (NW) 2,325 4.0 -9.5°
Reaches altitude 10° 05:17:13 10° 300° (WNW) 1,985 3.6 -9.4°
Maximum altitude 05:20:31 21° 252° (WSW) 1,403 2.8 -8.8°
Drops below altitude 10° 05:23:47 10° 204° (SSW) 1,949 3.9 -8.3°
Sets 05:26:26 0° 188° (S) 2,832 4.9 -7.8°
